Zurück zum Katalog

KUIPER-00132

AktivKommunikationVLEO
NORAD 65763·PAYLOAD·🇺🇸 United States

Gestartet Sep 25, 2025 von Cape Canaveral Space Force Station

Loading…

Nächste Überflüge (nächste 24 Stunden)

TLE

AktuellSource: CelesTrak SupGP

Epoche: Sep 14, 2026, 15:45 UTC

1 65763C 25217B   26257.65649306  .00006627  00000+0  16656-3 0  2579
2 65763  51.8521 163.7997 0004813 279.8575 336.8789 15.39339882    18

Verfolge KUIPER-00132 in Echtzeit mit AllMySat

Download on the App Store